49P/Arend-Rigaux (2025)

Japanese version
Home page
Updated on December 17, 2021

---------------------------------------------------------------------

* Profile

* Orbital Elements

Epoch 2025 Mar. 26.0 TT = JDT 2460760.5                                         
T 2025 Apr. 10.61727 TT                                 Rudenko                 
q   1.4313512            (2000.0)            P               Q                  
n   0.14610850     Peri.  332.93351     -0.05196438     -0.95676743             
a   3.5701440      Node   118.79162     +0.96514783     -0.12171584             
e   0.5990775      Incl.   19.05906     +0.25649437     +0.26416159             
P   6.75                                                                        
From 3684 observations 1951 Apr. 6-2020 July 20, mean residual 0".7.            
     Nongravitational parameters A1 = +0.01, A2 = -0.0004.                      

* Finding Charts

* Magnitudes Graph

        H = 13.5  G = 0.15                       [    ,-102]  (             - 2024 Dec. 29)
        m1 = 8.0 + 5 log d + 30.0 log r(t - 10)  [-102, 109]  (2024 Dec. 29 - 2025 July 28)
        H = 13.5  G = 0.15                       [ 109,    ]  (2025 July 28 -             )

---------------------------------------------------------------------

The orbital elements are published on M.P.E.C. 2021-F20.
The charts are made with StellaNavigator Ver.10 (AstroArts).
The magnitudes graphs are made with Comet for Windows.

---------------------------------------------------------------------

Copyright(C) Seiichi Yoshida (comet@aerith.net). All rights reserved.